Location: Wolf Lake
(46.8518°N, 80.6381°W)
Time: 11:03:50
(UTC-04:00)

ISS - Pass Details

Date: 17 March 2026
Orbit: 416 x 425 km, 51.6° (Epoch: 19 April)

Event Time Altitude Azimuth Distance (km) Brightness Sun altitude
Rises 22:35:34 0° 291° (WNW) 2,386 1.2 -30.4°
Reaches altitude 10° 22:37:46 10° 299° (WNW) 1,517 -0.1 -30.7°
Enters shadow 22:38:19 14° 303° (WNW) 1,304 -0.5 -30.8°
